Sant Sadurní d'Osormort





Hora UTC 07:55
Temperatura 21.3 ºC
Humedad 76.6 %
Pluja 0.0 mm
Velocidad viento 0.9 km/h
Dirección viento W

Datos diarios 2022-07-07



Hora UTC (invierno +1h; verano +2h)
Temperatura (ºC) Humedad (%) Velocidad viento (km/h) Precipitación (mm)
Hora UTC Aire Humedad Vel. Dir. Vel. Max Dir. Intent. máx 5 min.
00:05 17.0 92.7 0.0 NNE 0.0 WNW 0.0
00:10 16.9 92.8 0.0 NNE 0.0 WNW 0.0
00:15 16.8 92.8 0.0 NNE 0.0 WNW 0.0
00:20 16.7 93.0 0.0 NNE 0.0 WNW 0.0
00:25 16.6 92.9 0.0 NNE 0.0 WNW 0.0
00:30 16.5 92.9 0.0 NNE 0.0 WNW 0.0
00:35 16.3 92.8 0.0 NNE 0.0 WNW 0.0
00:40 16.2 92.9 0.0 NNE 0.0 WNW 0.0
00:45 16.0 93.0 0.0 NNE 0.0 WNW 0.0
00:50 15.9 92.9 0.0 NNE 0.0 WNW 0.0
00:55 15.7 93.0 0.0 NNE 0.0 WNW 0.0
01:00 15.6 93.2 0.0 NNE 0.0 WNW 0.0
01:05 15.6 93.5 0.0 NNE 0.0 WNW 0.0
01:10 15.6 93.5 0.0 NNE 0.0 WNW 0.0
01:15 15.4 93.4 0.0 NNE 0.0 WNW 0.0
01:20 15.4 93.5 0.0 NNE 0.0 WNW 0.0
01:25 15.3 93.6 0.0 NNE 0.0 WNW 0.0
01:30 15.3 93.7 0.0 NNE 0.0 WNW 0.0
01:35 15.2 93.8 0.0 NNE 0.0 WNW 0.0
01:40 15.2 94.1 0.0 NNE 0.0 WNW 0.0
01:45 15.3 94.3 0.0 NNE 0.0 WNW 0.0
01:50 15.2 93.8 0.0 NNE 0.0 WNW 0.0
01:55 15.1 93.8 0.0 NNE 0.0 WNW 0.0
02:00 15.2 94.2 0.0 NNE 0.0 WNW 0.0
02:05 15.1 94.2 0.0 NNE 0.0 WNW 0.0
02:10 15.1 94.3 0.0 NNE 0.0 WNW 0.0
02:15 15.2 94.3 0.0 NNE 0.0 WNW 0.0
02:20 15.2 94.4 0.0 NNE 0.0 WNW 0.0
02:25 15.2 94.6 0.0 NNE 0.0 WNW 0.0
02:30 15.3 94.6 0.0 NNE 0.0 WNW 0.0
02:35 15.3 94.7 0.0 NNE 0.0 WNW 0.0
02:40 15.3 94.7 0.0 NNE 0.0 WNW 0.0
02:45 15.4 94.8 0.0 NNE 0.0 WNW 0.0
02:50 15.4 94.7 0.0 NNE 0.0 WNW 0.0
02:55 15.4 94.7 0.0 NNE 0.0 WNW 0.0
03:00 15.4 94.7 0.0 NNE 0.0 WNW 0.0
03:05 15.4 94.7 0.0 NNE 0.0 WNW 0.0
03:10 15.4 94.6 0.0 NNE 0.0 WNW 0.0
03:15 15.3 94.6 0.0 NNE 0.0 WNW 0.0
03:20 15.4 94.7 0.0 NNE 0.0 WNW 0.0
03:25 15.4 94.5 0.0 NNE 0.0 WNW 0.0
03:30 15.4 94.5 0.0 NNE 0.0 WNW 0.0
03:35 15.2 94.3 0.0 NNE 0.0 WNW 0.0
03:40 15.1 94.2 0.0 NNE 0.0 WNW 0.0
03:45 15.0 94.3 0.0 NNE 0.0 WNW 0.0
03:50 15.0 94.6 0.0 NNE 0.0 WNW 0.0
03:55 15.0 94.5 0.0 NNE 0.0 WNW 0.0
04:00 14.8 94.2 0.0 NNE 0.0 WNW 0.0
04:05 14.8 94.5 0.0 NNE 0.0 WNW 0.0
04:10 14.6 94.5 0.0 NNE 0.0 WNW 0.0
04:15 14.6 94.6 0.0 NNE 0.0 WNW 0.0
04:20 14.5 94.4 0.0 NNE 0.0 WNW 0.0
04:25 14.4 94.5 0.0 NNE 0.0 WNW 0.0
04:30 14.3 94.7 0.0 NNE 0.0 WNW 0.0
04:35 14.2 94.5 0.0 NNE 0.0 WNW 0.0
04:40 14.1 94.7 0.0 NNE 0.0 WNW 0.0
04:45 14.1 94.9 0.0 NNE 0.0 WNW 0.0
04:50 14.1 94.8 0.0 NNE 0.0 WNW 0.0
04:55 14.0 94.7 0.0 NNE 0.0 WNW 0.0
05:00 13.9 94.9 0.0 NNE 0.0 WNW 0.0
05:05 14.0 95.2 0.0 NNE 0.0 WNW 0.0
05:10 14.0 95.3 0.0 NNE 0.0 WNW 0.0
05:15 13.9 94.7 0.0 NNE 0.0 WNW 0.0
05:20 13.9 94.9 0.0 NNE 0.0 WNW 0.0
05:25 13.8 95.1 0.0 NNE 0.0 WNW 0.0
05:30 13.8 95.2 0.0 NNE 0.0 WNW 0.0
05:35 13.9 95.4 0.0 NNE 0.0 WNW 0.0
05:40 13.9 95.5 0.0 NNE 0.0 WNW 0.0
05:45 14.1 95.8 0.0 NNE 0.0 WNW 0.0
05:50 14.2 95.8 0.0 NNE 0.0 WNW 0.0
05:55 14.3 95.8 0.0 NNE 0.0 WNW 0.0
06:00 14.4 96.1 0.0 NNE 0.0 WNW 0.0
06:05 14.7 96.5 0.0 NNE 0.0 WNW 0.0
06:10 15.0 96.3 0.0 NNE 0.0 WNW 0.0
06:15 15.2 96.3 0.0 NNE 0.0 WNW 0.0
06:20 15.5 96.3 0.0 NNE 0.0 WNW 0.0
06:25 15.7 96.2 0.0 NNE 0.0 WNW 0.0
06:30 16.0 96.3 0.0 NNE 0.0 WNW 0.0
06:35 16.3 96.2 0.0 NNE 0.0 WNW 0.0
06:40 16.6 96.0 0.0 NNE 0.0 WNW 0.0
06:45 16.9 95.9 0.0 NNE 0.0 WNW 0.0
06:50 17.3 96.1 0.0 NNE 0.0 SSW 0.0
06:55 17.7 95.3 0.0 NNE 0.0 ESE 0.0
07:00 18.1 94.3 0.0 NNE 0.0 ESE 0.0
07:05 18.4 93.2 0.0 NNE 0.0 ESE 0.0
07:10 18.6 91.7 0.1 E 3.4 E 0.0
07:15 19.2 91.2 0.0 NNE 0.0 E 0.0
07:20 19.5 89.1 0.0 NNE 0.0 E 0.0
07:25 19.7 87.6 0.0 NNE 0.0 SSE 0.0
07:30 20.0 85.4 0.0 NNE 0.0 S 0.0
07:35 20.4 84.6 0.0 NNE 0.0 NNW 0.0
07:40 20.7 83.5 0.0 NNE 0.0 SW 0.0
07:45 20.8 81.4 0.3 W 3.4 W 0.0
07:50 21.0 79.1 0.5 N 6.1 WNW 0.0
07:55 21.3 76.6 0.9 W 3.4 W 0.0
Máxima 21.4 96.5 0.9 W 6.1 WNW 0.0
Mínima 13.8 76.6
Total 0.0